Home > Weather > Minsk > Past weeks

Flag for Belarus Past Weather in Minsk, Belarus — Yesterday and Last 2 Weeks

Now
75 °F

Partly sunny.


Feels Like: 78 °F
Forecast: 56 / 77 °F
Wind: 10 mph from Northwest

Location: Loshitsa / Minsk International 1

Current Time: Jun 28, 2016 at 6:03:59 PM

Latest Report: Jun 28, 2016 at 5:30 PM


Visibility: N/A

Pressure: 29.89 "Hg

Humidity: 41%

Dew Point: 50 °F

Location of MinskLocation

Past Weather in Minsk — Graph

°F

Minsk Temperature Yesterday

Maximum temperature yesterday: 86 °F (at 1:00 PM)
Minimum temperature yesterday: 72 °F (at 7:00 AM)
Average temperature yesterday: 79 °F

High & Low Weather Summary for the Past Weeks

 TemperatureHumidityPressure
High88 °F (Jun 25, 3:00 PM)100% (Jun 16, 7:00 AM)30.36 "Hg (Jun 16, 7:00 AM)
Low55 °F (Jun 14, 7:00 AM)33% (Jun 14, 3:00 PM)29.56 "Hg (Jun 15, 2:00 PM)
Average72 °F62%29.98 "Hg
* Reported Jun 13 4:00 PM — Jun 28 4:30 PM, Minsk, Weather by CustomWeather, © 2016

Note: Actual official high and low records may vary slightly from our data, if they occured in-between our weather recording intervals... More about our weather records

Advertising

Minsk Weather History for the Previous 24 Hours

Scroll right to see more
 ConditionsComfort  
Time TempWeatherWind HumidityBarometerVisibility
4:30 PM
Tue, Jun 28
75 °FPartly sunny.13 mph41%29.89 "HgN/A
4:00 PM75 °FPartly sunny.10 mph41%29.89 "HgN/A
3:30 PM75 °FScattered clouds.10 mph44%29.89 "HgN/A
3:00 PM75 °FScattered clouds.10 mph44%29.89 "HgN/A
2:30 PM73 °FPartly sunny.10 mph44%29.89 "HgN/A
2:00 PM73 °FPartly sunny.10 mph44%29.92 "HgN/A
1:30 PM72 °FPartly sunny.10 mph47%29.92 "HgN/A
1:00 PM72 °FPartly sunny.10 mph47%29.92 "HgN/A
12:30 PM70 °FSunny.10 mph50%29.92 "Hg10 mi
12:00 PM70 °FSunny.13 mph50%29.92 "Hg10 mi
11:30 AM70 °FSunny.10 mph53%29.92 "Hg10 mi
11:00 AM70 °FSunny.13 mph53%29.92 "Hg10 mi
10:30 AM66 °FSunny.13 mph60%29.92 "Hg10 mi
10:00 AM66 °FSunny.13 mph60%29.92 "Hg10 mi
9:30 AM64 °FSunny.10 mph60%29.92 "Hg10 mi
9:00 AM64 °FBroken clouds.10 mph60%29.92 "HgN/A
8:30 AM63 °FBroken clouds.13 mph68%29.92 "HgN/A
8:00 AM63 °FBroken clouds.13 mph68%29.92 "HgN/A
7:30 AM61 °FSunny.10 mph72%29.92 "Hg10 mi
7:00 AM61 °FSunny.13 mph72%29.89 "Hg10 mi
Weather by CustomWeather, © 2016

See weather overviewHow to use our weather pages